Key West, FL

3:52 AM EDT on April 28, 2017 (GMT -0400)
Key West International

Weather History for KEYW - December, 2014

Change the Weather History Date:

Wednesday, December 24, 2014

  Actual Average Record
Temperature  
Mean Temperature 78 °F 70 °F  
Max Temperature 81 °F 75 °F 88 °F (1876)
Min Temperature 75 °F 66 °F 44 °F (1989)
Degree Days  
Heating Degree Days 0 1  
Month to date heating degree days 5 8  
Since 1 July heating degree days 6 9  
Cooling Degree Days 13 6  
Month to date cooling degree days 177 176  
Year to date cooling degree days 5020 4709  
Growing Degree Days 28 (Base 50)    
Moisture  
Dew Point 74 °F    
Average Humidity 85    
Maximum Humidity 91    
Minimum Humidity 79    
Precipitation  
Precipitation 1.51 in 0.05 in 1.89 in (1986)
Month to date precipitation 1.52 1.81  
Year to date precipitation 35.89 39.42  
Snow  
Snow 0.00 in - - ()
Month to date snowfall 0.0  
Since 1 July snowfall 0.0  
Snow Depth 0.00 in    
Sea Level Pressure  
Sea Level Pressure 29.94 in    
Wind  
Wind Speed 11 mph (South)    
Max Wind Speed 23 mph    
Max Gust Speed 29 mph    
Visibility 8 miles    
Events Fog , Rain , Thunderstorm    
T = Trace of Precipitation, MM = Missing Value Source: NWS Daily Summary

Daily Weather History Graph

Daily Weather History Graph

Search for Another Location

Airport or City:

Trip Planner

Search our weather history database for the weather conditions in past years. The results will help you decide how hot, cold, wet, or windy it might be!

Date:

Astronomy

Dec. 24, 2014 Rise Set
Actual Time 7:08 AM EST 5:45 PM EST
Civil Twilight 6:43 AM EST 6:10 PM EST
Nautical Twilight 6:14 AM EST 6:38 PM EST
Astronomical Twilight 5:46 AM EST 7:06 PM EST
Moon 9:14 AM EST (12/24) 8:49 PM EST (12/24)
Length of Visible Light 11h 26m
Length of Day
10h 37m
Waxing Crescent, 9% of the Moon is Illuminated
Dec 24
Waxing Crescent
Dec 28
First Quarter
Jan 4
Full
Jan 13
Last Quarter
Jan 20
New

Hourly Weather History & Observations

Time (EST) Temp. Heat Index Dew Point Humidity Pressure Visibility Wind Dir Wind Speed Gust Speed Precip Events Conditions
12:41 AM 79.0 °F - 73.9 °F 84% 29.91 in 10.0 mi SSE 16.1 mph - N/A   Mostly Cloudy
12:53 AM 79.0 °F - 73.9 °F 84% 29.91 in 10.0 mi SSE 12.7 mph - N/A   Overcast
1:53 AM 79.0 °F - 73.0 °F 82% 29.91 in 10.0 mi South 11.5 mph - N/A   Mostly Cloudy
2:53 AM 78.1 °F - 73.9 °F 87% 29.90 in 10.0 mi South 9.2 mph - N/A   Mostly Cloudy
3:53 AM 78.1 °F - 73.0 °F 84% 29.90 in 10.0 mi SSE 10.4 mph - N/A   Clear
4:53 AM 77.0 °F - 73.0 °F 88% 29.89 in 10.0 mi SSE 9.2 mph - N/A   Clear
5:53 AM 78.1 °F - 72.0 °F 81% 29.90 in 10.0 mi South 13.8 mph - N/A   Mostly Cloudy
6:53 AM 78.1 °F - 73.0 °F 84% 29.92 in 10.0 mi South 11.5 mph - N/A   Mostly Cloudy
7:53 AM 78.1 °F - 73.0 °F 84% 29.93 in 10.0 mi SSE 16.1 mph - N/A   Scattered Clouds
8:01 AM 78.1 °F - 73.0 °F 84% 29.93 in 10.0 mi SSE 15.0 mph - N/A   Mostly Cloudy
8:19 AM 78.1 °F - 73.0 °F 84% 29.93 in 10.0 mi SSE 15.0 mph - N/A   Scattered Clouds
8:53 AM 79.0 °F - 73.0 °F 82% 29.94 in 10.0 mi SSE 13.8 mph - N/A   Partly Cloudy
9:53 AM 80.1 °F 84.5 °F 73.9 °F 81% 29.96 in 10.0 mi SSE 15.0 mph - N/A   Clear
10:53 AM 81.0 °F 86.2 °F 73.9 °F 79% 29.96 in 10.0 mi SSE 16.1 mph 25.3 mph N/A   Partly Cloudy
11:53 AM 80.1 °F 84.5 °F 73.9 °F 81% 29.94 in 10.0 mi SSE 15.0 mph - N/A   Scattered Clouds
12:53 PM 80.1 °F 84.5 °F 73.9 °F 81% 29.93 in 10.0 mi South 11.5 mph - N/A   Mostly Cloudy
1:53 PM 79.0 °F - 73.9 °F 84% 29.93 in 10.0 mi SSW 10.4 mph - N/A Thunderstorm Thunderstorm
2:00 PM 78.1 °F - 75.0 °F 90% 29.95 in 1.5 mi SW 23.0 mph 29.9 mph 0.01 in Rain , Thunderstorm Heavy Thunderstorms and Rain
2:02 PM 77.0 °F - 73.9 °F 90% 29.95 in 0.8 mi SW 17.3 mph 29.9 mph 0.05 in Rain , Thunderstorm Heavy Thunderstorms and Rain
2:04 PM 75.9 °F - 73.9 °F 94% 29.92 in 0.5 mi SSW 11.5 mph 29.9 mph 0.16 in Fog , Rain , Thunderstorm Heavy Thunderstorms and Rain
2:10 PM 75.9 °F - 75.0 °F 97% 29.92 in 1.0 mi South 16.1 mph 21.9 mph 0.48 in Rain , Thunderstorm Heavy Thunderstorms and Rain
2:16 PM 75.9 °F - 73.9 °F 94% 29.92 in 2.0 mi South 11.5 mph 21.9 mph 0.51 in Rain , Thunderstorm Light Thunderstorms and Rain
2:23 PM 75.0 °F - 73.0 °F 94% 29.92 in 3.0 mi South 10.4 mph - 0.51 in Rain , Thunderstorm Light Thunderstorms and Rain
2:30 PM 75.9 °F - 73.0 °F 91% 29.91 in 3.0 mi SSW 8.1 mph - 0.51 in Rain , Thunderstorm Light Rain
2:40 PM 75.9 °F - 73.0 °F 91% 29.91 in 9.0 mi South 6.9 mph - 0.52 in Rain , Thunderstorm Light Thunderstorms and Rain
2:53 PM 75.9 °F - 73.0 °F 91% 29.91 in 9.0 mi South 3.5 mph - 0.52 in Rain , Thunderstorm Light Rain
3:22 PM 77.0 °F - 73.0 °F 88% 29.91 in 10.0 mi SSE 8.1 mph - 0.01 in   Mostly Cloudy
3:53 PM 78.1 °F - 73.9 °F 87% 29.91 in 10.0 mi SSE 6.9 mph - 0.01 in   Partly Cloudy
4:53 PM 78.1 °F - 73.9 °F 87% 29.92 in 10.0 mi South 5.8 mph - N/A   Mostly Cloudy
5:53 PM 77.0 °F - 73.9 °F 90% 29.93 in 10.0 mi SE 6.9 mph - N/A   Scattered Clouds
6:53 PM 78.1 °F - 75.0 °F 90% 29.95 in 10.0 mi SSE 8.1 mph - N/A   Partly Cloudy
7:53 PM 78.1 °F - 75.0 °F 90% 29.96 in 10.0 mi SE 9.2 mph - N/A   Scattered Clouds
8:53 PM 79.0 °F - 75.9 °F 90% 29.98 in 10.0 mi SSE 8.1 mph - 0.00 in   Overcast
9:05 PM 78.1 °F - 75.9 °F 93% 30.00 in 2.5 mi SW 15.0 mph 21.9 mph 0.02 in Rain , Thunderstorm Heavy Thunderstorms and Rain
9:08 PM 75.9 °F - 73.9 °F 94% 30.00 in 1.2 mi SW 12.7 mph 21.9 mph 0.14 in Rain , Thunderstorm Heavy Thunderstorms and Rain
9:11 PM 75.0 °F - 72.0 °F 90% 30.00 in 0.8 mi WSW 12.7 mph 21.9 mph 0.33 in Rain , Thunderstorm Heavy Thunderstorms and Rain
9:14 PM 75.0 °F - 72.0 °F 90% 29.99 in 0.5 mi SW 17.3 mph 25.3 mph 0.59 in Fog , Rain , Thunderstorm Heavy Thunderstorms and Rain
9:19 PM 75.0 °F - 73.9 °F 96% 29.98 in 0.8 mi South 10.4 mph 25.3 mph 0.96 in Rain Heavy Rain
9:22 PM 75.9 °F - 73.0 °F 91% 29.98 in 1.2 mi SW 11.5 mph 25.3 mph 0.96 in Rain Light Rain
9:24 PM 75.2 °F - 73.4 °F 94% 29.98 in 2.5 mi SW 12.7 mph - N/A Rain , Thunderstorm Light Thunderstorms and Rain
9:26 PM 77.0 °F - 73.0 °F 88% 29.98 in 6.0 mi SW 15.0 mph 21.9 mph 0.96 in Rain , Thunderstorm Light Thunderstorms and Rain
9:53 PM 79.0 °F - 75.9 °F 90% 29.99 in 6.0 mi South 10.4 mph - 0.97 in Rain , Thunderstorm Rain
10:09 PM 78.1 °F - 73.9 °F 87% 29.99 in 10.0 mi South 12.7 mph - 0.01 in   Overcast
10:53 PM 77.0 °F - 73.9 °F 90% 29.99 in 10.0 mi SSW 10.4 mph - 0.01 in Thunderstorm Thunderstorm
11:12 PM 77.0 °F - 73.9 °F 90% 29.99 in 10.0 mi South 9.2 mph - N/A   Scattered Clouds
11:53 PM 78.1 °F - 75.0 °F 90% 29.99 in 10.0 mi South 13.8 mph - N/A   Partly Cloudy